Simultaneous Nadir Overpasses (SNOs) Predictions

Prediction of SNOs between AQUA and NOAA-19 Satellite Orbit:

Table of predicted SNOs for the next 14.0 days since TLE Epoch: 10/30/2021
Index Date (AQUA) Time (AQUA) Lat,Lon (AQUA) SZA (AQUA ) Date (NOAA-19) Time (NOAA-19) Lat,Lon (NOAA-19) SZA (NOAA-19 ) Distance(km) Time Diff (sec)
1 10/31/2021 02:46:10 -78.35, -61.81 87.13 10/31/2021 02:45:10 -78.34, -61.67 87.13 3.46 60
2 10/31/2021 03:35:38 78.38, 105.66 92.93 10/31/2021 03:36:10 78.37, 105.79 92.90 3.09 32
3 11/02/2021 09:09:22 -78.34,-157.53 86.43 11/02/2021 09:09:16 -78.33,-157.66 86.42 2.91 6
4 11/04/2021 14:43:08 78.33, -60.93 94.26 11/04/2021 14:42:21 78.34, -60.81 94.27 3.00 47
5 11/04/2021 15:32:35 -78.37, 106.48 85.68 11/04/2021 15:33:21 -78.36, 106.56 85.71 2.71 46
6 11/06/2021 21:06:20 78.34,-156.77 94.95 11/06/2021 21:06:26 78.34,-156.75 94.95 0.39 6
7 11/09/2021 02:40:04 -78.32, -60.11 84.43 11/09/2021 02:39:33 -78.32, -60.07 84.42 0.91 31
8 11/09/2021 03:29:32 78.35, 107.34 95.63 11/09/2021 03:30:31 78.33, 107.28 95.60 2.95 59
9 11/11/2021 08:13:49 78.30, 36.53 96.19 11/11/2021 08:12:37 78.28, 36.52 96.18 2.64 72



Historial Predications of SNOs between AQUA and NOAA-19
